Temperature
13 13 13 12 12 12 12 12 12 12 12 12 12 12 12 12 12 12 12 12 12 12 12 12 11 11 11 11 11 11 10 10 10 10 10 10 10 10 10 9 9 9 9
13 13 12 12 12 12 12 12 12 12 12 12 12 12 12 12 12 12 12 12 12 11 11 11 11 11 11 10 10 10 10 10 10 9 9 9 9 9 9 9 9 9 9
13 12 12 11 11 11 11 12 11 11 11 11 11 11 11 11 11 11 11 11 11 11 11 11 11 10 10 10 10 10 10 9 9 9 8 8 8 8 9 9 9 8 8
12 12 11 11 11 11 11 11 11 11 11 11 11 11 11 11 11 11 11 11 11 11 11 10 10 10 10 10 9 9 9 9 9 8 8 8 8 7 7 8 8 8 8
11 11 10 10 10 10 10 10 10 10 10 10 10 11 11 11 11 11 11 10 10 10 10 10 10 10 9 9 9 9 8 8 8 8 8 8 7 7 6 6 7 7 7
11 10 10 10 10 10 10 10 10 10 10 10 10 10 10 10 10 10 10 10 10 10 10 10 9 9 9 9 9 8 8 8 8 7 7 7 7 7 6 6 6 6 7
10 9 9 9 9 9 9 9 9 9 9 9 9 10 9 10 10 10 10 9 9 9 9 9 9 9 9 9 8 8 8 7 7 7 7 7 6 6 6 5 5 5 5
9 9 9 8 8 8 8 8 8 9 8 9 9 9 9 9 9 9 9 9 9 9 9 9 9 8 8 8 8 7 7 7 7 7 7 6 6 6 5 5 4 4 4
8 8 8 8 7 7 8 8 8 8 8 8 8 8 8 8 8 8 8 8 8 8 8 8 8 8 8 7 7 7 7 7 6 6 6 6 6 5 5 4 4 4 3
7 7 7 7 7 7 7 7 7 7 7 7 7 7 7 7 8 8 8 8 8 8 8 7 7 7 7 7 7 7 6 6 6 6 6 5 5 5 5 4 4 3 3
6 6 6 6 6 6 6 6 6 7 7 7 7 7 7 7 7 7 7 7 7 7 7 7 7 7 7 6 6 6 6 6 5 5 5 5 5 4 4 4 4 3 3
6 6 6 6 5 5 5 5 6 6 6 6 6 6 7 7 7 7 7 7 6 6 6 6 6 6 6 6 6 6 5 5 5 5 5 5 4 4 4 4 3 3 3
5 5 5 5 5 5 5 5 5 5 6 6 6 6 6 6 6 6 6 6 6 6 6 6 6 6 5 5 5 5 5 5 5 4 4 4 4 4 3 3 3 3 2
4 4 4 4 4 4 4 4 4 5 5 5 5 5 6 6 6 6 6 5 5 5 5 5 5 5 5 5 5 5 4 4 4 4 3 3 3 3 3 2 2 2 2
3 3 3 3 3 3 3 3 4 4 4 5 5 5 5 5 5 5 5 5 5 5 5 5 5 5 5 4 4 4 4 3 3 3 3 3 3 2 2 2 2 2 1
2 2 2 2 2 2 2 3 3 3 3 4 4 4 4 4 4 4 4 4 4 4 4 4 4 4 4 4 3 3 3 3 3 2 2 2 2 2 2 1 1 1 1
2 2 2 1 1 1 2 2 2 2 3 3 3 3 4 4 4 4 4 4 4 4 4 4 4 4 4 3 3 3 2 2 2 2 2 1 1 1 1 1 1 1 1
1 1 1 1 1 1 1 1 2 2 2 2 3 3 3 3 3 3 3 3 3 3 3 3 3 3 3 3 2 2 2 2 2 1 1 1 1 1 1 0 0 0 0
1 1 1 1 1 1 1 1 1 1 2 2 2 2 2 2 2 2 2 2 2 2 2 2 2 2 2 2 2 2 1 1 1 1 1 0 0 0 0 0 0 0 -0
0 0 0 0 0 0 0 1 1 1 1 1 1 1 1 2 2 2 2 2 2 2 2 2 2 2 1 1 1 1 1 1 1 0 0 -0 -0 -0 -0 -0 -0 -0 -0
-0 -0 -0 -0 -0 -0 -0 0 0 0 0 1 1 1 1 1 1 1 1 1 1 1 1 1 1 1 1 1 0 0 0 0 -0 -0 -0 -1 -1 -1 -1 -1 -1 -1 -1
-1 -1 -1 -1 -1 -1 -0 -0 -0 -0 -0 0 0 0 0 0 0 0 0 0 0 1 1 0 0 0 0 -0 -0 -0 -0 -1 -1 -1 -1 -1 -1 -1 -1 -1 -1 -1 -1
-2 -2 -1 -1 -1 -1 -1 -1 -1 -1 -1 -1 -0 -0 -0 -0 -1 -0 -0 -0 -0 -0 -0 -0 -0 -0 -1 -1 -1 -1 -1 -1 -1 -1 -1 -1 -1 -1 -1 -1 -2 -2 -2
-2 -2 -2 -2 -2 -2 -2 -2 -2 -1 -1 -1 -1 -1 -1 -1 -1 -1 -1 -1 -1 -1 -1 -1 -1 -1 -1 -1 -1 -1 -1 -2 -2 -2 -2 -2 -2 -2 -2 -2 -2 -2 -2
-3 -3 -3 -3 -3 -3 -3 -2 -2 -2 -2 -2 -2 -2 -2 -2 -2 -2 -2 -2 -2 -2 -2 -2 -2 -2 -2 -2 -2 -2 -2 -2 -2 -2 -2 -2 -2 -2 -2 -2 -2 -2 -2
-3 -3 -3 -3 -3 -3 -3 -3 -3 -3 -3 -3 -3 -3 -3 -3 -3 -2 -2 -2 -2 -2 -2 -2 -2 -2 -2 -2 -2 -2 -2 -2 -3 -3 -3 -3 -3 -3 -3 -3 -3 -3 -3
Wind_Speed
6 6 6 7 7 8 8 8 8 7 6 4 4 4 4 4 4 5 7 7 5 5 4 3 2 3 2 1 1 1 2 2 2 2 3 3 2 1 1 1 1 2 3
6 6 6 6 7 7 8 8 8 7 6 5 4 4 4 3 3 4 5 6 5 5 4 3 2 2 1 1 1 1 1 1 2 1 1 2 3 3 2 2 1 2 3
7 7 6 5 6 7 7 7 7 7 6 6 4 4 4 3 3 3 3 4 5 5 4 3 2 2 1 1 1 1 1 0 1 1 1 0 2 3 3 2 2 2 2
5 6 6 5 5 5 5 6 7 7 6 6 6 7 5 4 4 4 3 3 5 5 4 3 3 2 1 1 0 1 1 1 1 1 1 1 1 1 3 3 2 3 3
5 5 5 4 4 4 5 5 6 6 5 5 6 6 5 4 4 4 5 4 3 4 4 3 2 2 1 1 1 1 1 0 1 1 1 1 2 2 2 4 4 4 3
5 5 5 4 3 3 4 5 5 5 5 5 5 5 5 5 6 5 5 4 3 3 3 3 2 2 2 1 1 1 1 1 1 1 1 1 1 2 2 3 5 5 4
5 5 5 5 4 4 4 5 5 5 5 5 5 5 5 5 6 5 5 4 3 2 3 2 2 2 2 1 1 0 1 1 1 2 2 2 2 2 2 3 5 5 4
4 5 5 4 4 4 4 4 5 5 5 5 4 4 4 4 3 4 4 4 3 3 3 2 2 2 2 1 1 0 1 1 1 2 2 2 2 2 2 2 3 5 4
4 5 4 4 4 4 4 4 5 5 5 5 4 4 4 4 4 4 4 3 3 3 3 2 2 2 1 1 0 1 1 1 1 2 2 2 2 2 2 2 2 3 6
4 4 4 4 4 4 4 3 4 4 4 4 4 4 4 4 4 4 4 3 3 3 3 2 2 1 1 0 0 0 1 1 2 2 2 2 2 2 2 2 3 3 5
3 4 4 4 5 5 4 3 4 4 4 3 4 4 4 4 4 4 4 3 3 3 3 2 2 2 1 0 0 1 1 1 2 2 2 2 2 2 2 2 3 3 4
4 5 5 5 5 5 4 4 4 4 3 3 4 4 4 4 3 3 3 3 3 2 2 2 2 1 1 1 1 1 1 2 2 2 2 3 3 3 3 2 3 4 4
5 5 5 5 5 4 4 4 4 4 3 4 4 4 4 3 3 3 3 3 3 2 2 2 2 1 1 1 1 1 1 2 2 2 2 3 3 3 3 3 3 3 4
5 5 5 4 4 4 4 4 4 4 4 4 4 3 3 3 3 3 3 2 2 2 2 1 1 1 1 1 1 1 1 2 2 2 2 3 3 3 3 3 3 4 4
4 4 4 4 4 4 4 4 4 4 4 4 4 3 3 3 3 3 2 2 2 1 1 1 0 0 1 1 1 2 2 2 2 3 3 3 3 4 4 4 4 4 4
4 4 4 4 3 3 3 4 4 3 3 4 4 3 3 3 2 2 2 2 1 1 1 1 1 1 1 2 2 2 1 2 2 3 3 3 4 5 6 7 7 6 5
3 3 3 3 3 3 3 3 3 3 3 4 4 3 3 2 2 2 2 2 1 1 1 0 1 1 2 3 3 2 1 2 2 3 3 3 4 5 4 4 6 6 7
3 3 3 3 2 2 3 3 4 3 3 4 4 3 3 2 2 1 1 0 1 1 1 1 1 1 2 3 3 3 1 2 2 2 3 3 4 4 4 3 3 4 4
3 2 3 3 3 3 3 4 4 3 4 3 3 2 2 2 1 1 1 1 0 1 1 1 1 2 2 3 3 3 1 2 2 2 3 3 3 4 5 4 4 5 5
3 3 3 4 3 3 3 4 4 4 3 2 2 2 2 1 1 1 1 1 1 1 1 1 1 2 2 2 3 3 1 1 2 2 2 3 3 5 6 4 3 5 5
4 4 4 3 3 2 3 4 3 3 2 2 2 3 2 1 1 1 1 1 2 2 2 2 2 2 2 2 3 3 1 1 2 2 2 2 4 5 6 5 3 5 5
4 4 3 3 3 3 3 3 3 2 2 2 2 2 2 1 1 1 2 2 2 2 2 2 2 1 1 2 3 3 4 3 2 2 2 2 4 6 6 5 5 6 6
3 3 3 3 3 3 3 3 2 2 2 2 2 2 2 2 2 1 2 2 2 2 2 1 2 2 1 2 3 4 4 4 3 2 4 5 5 5 4 5 6 5 3
3 3 3 3 3 3 3 2 1 1 2 2 1 1 1 2 2 2 2 1 2 2 2 2 2 2 2 2 1 1 2 2 2 2 3 5 5 5 5 5 4 3 3
2 2 2 2 2 2 2 2 2 2 2 1 1 2 1 1 2 2 2 2 2 2 2 2 2 2 2 3 4 3 2 2 2 2 2 2 3 3 3 3 3 3 3
2 2 2 2 2 2 2 2 2 2 1 1 1 1 1 1 2 2 2 3 3 4 4 4 4 4 4 5 5 5 4 4 3 2 2 2 2 3 3 4 4 3 3
Wind_Direction
152 144 140 141 137 137 139 141 139 136 130 131 135 133 133 129 117 111 118 120 119 114 106 93 87 83 89 78 49 44 27 16 6 3 325 307 279 255 279 287 311 310 312
156 146 142 144 144 147 147 144 145 145 143 146 147 139 132 128 123 119 120 124 120 116 111 102 94 87 97 72 54 59 38 12 31 38 346 328 331 319 291 287 285 295 314
163 154 149 149 151 155 158 155 152 151 148 144 134 123 105 104 113 126 129 127 128 120 115 113 104 91 104 134 118 104 101 39 327 42 97 22 287 314 303 291 288 305 317
154 151 146 148 152 155 150 149 151 149 147 146 147 148 148 149 157 149 141 135 132 127 123 116 109 99 95 105 107 98 106 117 295 322 340 239 225 296 308 307 303 315 312
143 136 134 137 138 142 146 145 145 146 145 148 150 152 148 145 140 141 141 143 131 128 127 125 114 106 92 91 47 49 71 156 213 257 296 295 304 250 243 289 304 313 302
127 127 118 113 113 118 135 144 148 150 148 150 153 155 151 149 145 146 149 150 143 138 132 132 126 118 102 100 77 19 283 250 244 245 245 246 258 268 264 277 298 302 299
125 123 126 128 123 127 137 145 150 148 149 151 157 162 156 153 152 151 152 149 147 145 154 135 129 118 110 112 97 118 279 268 265 251 252 252 260 266 278 286 295 300 300
126 126 129 129 129 135 140 141 145 142 143 149 154 152 146 140 144 147 146 151 154 154 150 138 127 120 114 103 97 194 253 262 270 277 273 265 268 268 266 271 297 306 298
109 110 115 124 130 134 135 140 143 138 141 145 144 142 135 130 131 134 129 135 136 136 135 134 130 127 124 117 138 209 263 272 261 264 276 278 273 264 274 278 266 275 295
89 98 110 113 117 117 116 116 126 134 133 137 143 134 127 127 128 131 134 131 126 123 136 142 142 143 130 111 109 227 268 264 264 260 265 275 279 282 270 259 262 259 268
87 88 91 97 104 103 103 99 102 106 113 113 121 121 120 120 120 127 133 133 135 140 149 159 159 157 155 139 232 253 264 266 269 270 267 276 283 275 280 276 270 271 269
80 82 83 82 91 98 102 101 100 101 105 105 108 115 115 118 124 129 129 127 133 134 142 151 167 171 175 180 217 254 256 259 268 277 279 283 290 288 282 280 281 278 274
90 85 82 80 80 84 91 94 97 100 97 101 98 107 115 119 123 123 118 120 127 132 130 145 165 177 202 214 227 226 246 260 270 282 285 290 293 293 291 293 294 290 292
97 95 90 83 78 77 83 84 81 90 97 97 98 100 109 115 113 109 106 111 120 128 129 137 168 195 205 223 237 238 251 271 284 289 291 295 296 295 300 299 294 293 297
101 100 98 90 79 71 72 78 76 76 89 95 94 86 83 89 97 104 107 107 112 126 129 146 217 217 221 230 235 232 247 267 286 288 284 289 296 297 300 303 306 308 304
112 104 102 97 90 85 81 80 77 74 85 94 94 89 84 84 94 112 119 119 122 118 113 159 224 245 254 267 263 263 238 262 275 285 296 296 299 306 309 310 313 309 303
110 104 107 106 102 97 95 93 90 81 82 89 87 85 84 78 74 89 108 125 146 148 157 218 251 255 260 264 266 274 274 272 277 280 289 299 306 311 303 310 320 321 316
109 95 96 97 92 88 90 90 88 87 84 85 83 78 80 74 65 63 68 65 107 125 185 236 264 275 278 283 276 283 278 265 267 274 282 291 297 305 308 307 312 309 305
97 92 88 87 82 82 84 88 83 83 81 77 77 76 83 86 83 63 23 349 340 297 269 245 261 265 279 295 290 286 243 255 274 287 304 305 296 308 317 318 309 308 308
76 84 86 81 77 73 85 90 87 80 72 64 57 57 72 71 57 21 357 338 317 290 286 277 278 268 265 294 302 302 267 265 280 284 291 307 310 317 321 313 302 303 305
78 83 84 84 79 72 84 87 79 71 60 56 59 54 46 39 22 11 355 334 321 315 297 282 284 283 293 306 306 315 306 289 290 295 297 298 310 314 317 319 300 298 310
75 77 83 81 76 78 88 83 63 43 46 52 58 53 34 10 14 18 349 329 318 308 294 287 292 296 302 312 312 315 316 324 307 299 307 314 313 314 314 316 312 318 323
75 76 81 74 64 64 79 84 55 44 44 50 53 41 24 11 357 342 325 325 317 302 295 290 289 300 310 318 322 318 318 319 312 297 305 312 314 318 319 321 322 325 318
74 78 80 76 59 52 60 70 53 50 55 49 39 33 23 3 353 342 331 325 316 303 301 294 285 295 312 320 322 320 325 334 325 318 316 319 319 321 318 322 320 312 299
60 72 86 85 65 58 55 44 29 48 53 37 24 8 358 345 343 342 337 332 315 301 300 295 287 289 297 307 324 325 320 321 306 325 325 325 328 330 324 319 315 308 308
69 70 73 77 68 59 50 33 21 33 52 29 11 1 346 340 338 335 342 345 324 339 336 323 308 302 296 304 313 320 322 326 323 328 313 310 308 307 314 318 318 316 314
Height
1490 1492 1494 1497 1499 1502 1504 1507 1510 1512 1515 1518 1520 1523 1526 1528 1530 1532 1534 1535 1536 1537 1538 1539 1540 1541 1542 1542 1542 1543 1543 1542 1542 1541 1541 1540 1540 1540 1539 1539 1538 1537 1535
1487 1490 1492 1495 1497 1499 1502 1505 1508 1510 1513 1516 1518 1521 1524 1526 1528 1530 1531 1533 1534 1535 1536 1537 1538 1539 1539 1540 1540 1541 1541 1541 1540 1540 1539 1538 1538 1537 1537 1536 1535 1534 1533
1484 1487 1490 1492 1494 1497 1500 1502 1505 1508 1511 1513 1516 1519 1521 1524 1526 1527 1529 1531 1532 1533 1534 1535 1536 1537 1537 1538 1538 1539 1539 1539 1539 1539 1539 1538 1536 1535 1534 1533 1533 1532 1530
1482 1485 1487 1489 1492 1494 1497 1500 1503 1505 1508 1511 1513 1515 1518 1520 1523 1525 1527 1528 1530 1531 1532 1533 1534 1535 1535 1536 1536 1537 1537 1537 1536 1537 1536 1537 1536 1534 1531 1530 1530 1529 1527
1480 1482 1484 1487 1489 1492 1494 1497 1500 1503 1506 1508 1511 1513 1516 1518 1520 1522 1524 1526 1527 1529 1530 1531 1532 1532 1533 1534 1534 1534 1534 1534 1534 1534 1534 1534 1533 1532 1531 1527 1525 1524 1523
1478 1480 1483 1485 1487 1489 1492 1494 1497 1500 1503 1506 1509 1511 1513 1515 1517 1519 1521 1523 1525 1526 1527 1529 1529 1530 1531 1531 1531 1532 1532 1532 1532 1532 1532 1531 1530 1529 1528 1525 1522 1520 1519
1476 1478 1480 1483 1485 1487 1489 1492 1495 1498 1500 1503 1506 1508 1511 1513 1515 1516 1518 1520 1522 1523 1525 1526 1527 1527 1528 1529 1529 1529 1529 1529 1529 1529 1529 1528 1528 1527 1526 1524 1520 1517 1515
1474 1476 1479 1481 1483 1485 1487 1490 1492 1495 1498 1500 1503 1506 1508 1510 1512 1514 1516 1517 1519 1521 1522 1523 1524 1525 1525 1526 1526 1526 1526 1526 1526 1526 1526 1525 1524 1524 1523 1521 1519 1514 1511
1473 1475 1477 1479 1481 1483 1485 1488 1490 1493 1496 1498 1501 1503 1506 1508 1510 1511 1513 1515 1517 1518 1519 1520 1521 1522 1523 1523 1523 1523 1523 1523 1523 1522 1522 1521 1521 1520 1519 1518 1517 1515 1510
1472 1474 1476 1478 1480 1482 1484 1486 1489 1491 1493 1496 1499 1501 1503 1506 1508 1509 1511 1512 1514 1515 1516 1517 1518 1519 1520 1520 1520 1520 1520 1520 1519 1519 1518 1518 1517 1516 1515 1514 1513 1512 1509
1472 1474 1476 1478 1479 1481 1483 1485 1487 1489 1491 1494 1496 1499 1501 1504 1505 1507 1508 1510 1511 1513 1514 1515 1515 1516 1516 1517 1517 1517 1516 1516 1516 1515 1514 1514 1513 1512 1511 1510 1509 1508 1506
1473 1474 1476 1477 1479 1480 1482 1484 1486 1487 1490 1492 1494 1497 1499 1501 1503 1505 1506 1508 1509 1510 1511 1512 1513 1513 1513 1513 1513 1513 1513 1512 1512 1511 1511 1510 1509 1508 1507 1506 1505 1503 1502
1473 1474 1476 1477 1478 1480 1481 1483 1484 1486 1488 1490 1492 1495 1497 1499 1501 1502 1504 1505 1506 1507 1508 1509 1509 1510 1510 1510 1510 1510 1509 1509 1508 1507 1507 1506 1505 1504 1503 1502 1500 1499 1497
1473 1474 1475 1477 1478 1479 1480 1482 1483 1485 1487 1489 1491 1493 1495 1497 1498 1500 1501 1503 1504 1504 1505 1506 1506 1506 1506 1506 1506 1506 1505 1505 1504 1504 1503 1502 1501 1500 1499 1497 1496 1495 1493
1473 1474 1475 1476 1478 1479 1480 1481 1482 1484 1485 1487 1489 1491 1493 1495 1496 1497 1499 1500 1501 1502 1502 1502 1503 1503 1503 1502 1502 1502 1501 1501 1500 1499 1499 1498 1497 1496 1495 1494 1492 1491 1489
1473 1474 1475 1476 1477 1478 1479 1480 1481 1482 1484 1485 1487 1489 1491 1492 1493 1495 1496 1497 1498 1498 1499 1499 1499 1499 1499 1499 1499 1498 1497 1497 1496 1495 1494 1494 1493 1492 1491 1490 1489 1488 1486
1473 1474 1474 1475 1476 1477 1478 1479 1480 1481 1483 1484 1485 1487 1488 1490 1491 1492 1493 1493 1494 1495 1495 1495 1495 1495 1495 1495 1495 1494 1494 1493 1492 1492 1491 1490 1489 1488 1487 1486 1485 1483 1482
1472 1473 1474 1474 1475 1476 1477 1478 1479 1481 1482 1483 1484 1485 1486 1487 1488 1489 1489 1490 1491 1491 1491 1491 1492 1491 1491 1491 1491 1490 1490 1489 1489 1488 1487 1486 1485 1484 1483 1482 1480 1479 1477
1471 1472 1473 1473 1474 1475 1476 1477 1478 1480 1481 1482 1483 1484 1485 1485 1486 1486 1487 1487 1488 1488 1488 1488 1488 1488 1487 1487 1487 1487 1486 1485 1485 1484 1484 1483 1481 1481 1480 1479 1477 1475 1473
1470 1471 1471 1472 1473 1474 1475 1476 1477 1478 1479 1480 1481 1482 1483 1483 1484 1484 1484 1484 1484 1484 1484 1484 1484 1484 1484 1484 1484 1483 1483 1482 1481 1480 1480 1479 1478 1477 1476 1475 1473 1471 1470
1469 1470 1470 1471 1472 1473 1474 1474 1475 1476 1478 1479 1479 1480 1481 1481 1481 1481 1481 1481 1481 1481 1481 1480 1481 1481 1481 1480 1480 1480 1480 1479 1478 1477 1476 1475 1475 1474 1473 1472 1470 1468 1467
1468 1469 1469 1470 1471 1472 1473 1473 1474 1475 1476 1477 1477 1478 1478 1478 1478 1478 1478 1478 1478 1477 1477 1477 1477 1477 1477 1477 1477 1477 1477 1476 1475 1474 1473 1472 1471 1470 1469 1468 1467 1465 1464
1468 1468 1469 1469 1470 1471 1471 1472 1473 1474 1474 1475 1475 1475 1476 1476 1476 1476 1475 1475 1475 1474 1473 1473 1473 1473 1474 1474 1474 1473 1473 1472 1472 1470 1470 1469 1468 1466 1465 1464 1463 1462 1460
1467 1467 1468 1468 1469 1470 1470 1471 1471 1472 1472 1473 1473 1473 1473 1473 1473 1473 1473 1472 1472 1471 1471 1471 1470 1470 1470 1470 1470 1469 1469 1469 1468 1467 1466 1465 1464 1463 1462 1461 1460 1458 1457
1466 1467 1467 1467 1467 1468 1469 1469 1470 1470 1470 1470 1471 1471 1471 1471 1471 1471 1470 1470 1469 1469 1469 1468 1468 1467 1466 1467 1467 1467 1466 1465 1465 1464 1463 1461 1460 1459 1458 1457 1456 1455 1453
1465 1466 1466 1466 1466 1467 1467 1468 1468 1468 1468 1468 1469 1469 1469 1469 1468 1468 1468 1467 1468 1467 1466 1466 1465 1464 1464 1464 1464 1463 1463 1462 1462 1461 1459 1458 1457 1456 1455 1454 1453 1451 1450